Date,TemperatureHighF,TemperatureAvgF,TemperatureLowF,DewpointHighF,DewpointAvgF,DewpointLowF,HumidityHigh,HumidityAvg,HumidityLow,PressureMaxIn,PressureMinIn,WindSpeedMaxMPH,WindSpeedAvgMPH,GustSpeedMaxMPH,PrecipitationSumIn
2014-2-1,66,58,52,39,36,34,51,45,36,30.07,29.91,10,5,18,0.00
2014-2-2,55,49,44,43,33,28,94,54,42,29.91,29.74,13,10,26,0.01
2014-2-3,57,49,44,46,40,35,94,73,55,29.98,29.72,11,5,17,0.00
2014-2-4,47,43,37,44,39,29,97,85,65,30.13,29.97,5,2,9,0.09
2014-2-5,49,42,36,31,27,22,72,56,35,30.19,30.07,11,4,15,0.00
2014-2-6,49,43,38,39,31,18,86,64,42,30.09,30.01,9,3,10,0.00
2014-2-7,55,46,39,39,35,30,85,66,41,30.15,30.08,4,2,6,0.00
2014-2-8,58,49,43,36,30,25,69,49,30,30.22,30.11,5,2,6,0.00
2014-2-9,61,52,46,34,28,25,55,40,27,30.25,30.16,7,4,10,0.00
2014-2-10,62,52,44,41,31,24,87,47,24,30.17,30.11,6,2,8,0.00
2014-2-11,61,51,42,49,45,39,96,80,54,30.19,30.10,5,2,8,0.00
2014-2-12,65,57,50,45,37,33,82,50,33,30.13,29.99,11,8,16,0.00
2014-2-13,70,60,53,41,34,29,50,38,22,29.99,29.91,10,5,13,0.00
2014-2-14,66,55,49,52,40,25,98,61,26,29.92,29.85,9,5,13,0.02
2014-2-15,53,48,42,48,43,40,99,86,61,29.90,29.83,11,5,15,0.20
2014-2-16,51,47,45,48,45,43,96,92,84,30.12,29.85,7,2,9,0.02
2014-2-17,56,49,44,48,46,43,97,89,65,30.31,30.11,8,3,10,0.01
2014-2-18,62,52,43,50,44,31,98,75,42,30.35,30.27,7,2,8,0.01
2014-2-19,69,58,51,50,39,33,76,50,27,30.31,30.20,7,4,9,0.00
2014-2-20,71,62,55,44,35,22,48,37,21,30.20,30.10,7,4,10,0.00
2014-2-21,75,66,58,42,30,19,40,26,18,30.10,29.92,7,3,8,0.00
2014-2-22,75,63,52,53,39,28,96,48,23,29.92,29.79,10,5,14,0.00
2014-2-23,65,55,50,53,51,48,97,87,63,29.99,29.88,10,2,15,0.00
2014-2-24,63,54,50,55,51,47,97,88,60,29.97,29.89,7,3,10,0.01
2014-2-25,56,51,49,50,48,44,98,89,66,30.12,29.93,12,7,21,0.00
2014-2-26,58,50,46,48,45,43,93,84,63,30.18,30.08,9,4,11,0.00
2014-2-27,55,44,44,47,30,-100,94,75,67,30.17,30.10,8,-94,13,0.00
2014-2-28,62,47,44,45,27,-100,93,60,42,30.18,30.05,7,-104,10,0.00